User: anonymous   Login
Location: Unspecified
(0.0000°N, 0.0000°E)
Time: 01:09:52
(UTC+00:00)
Language:

NOAA 15 - Orbit

View from above orbital plane
View from above orbital plane
View from above satellite
View from above satellite

Ground track
Ground track

The orbit data is extracted from the following two-line orbital elements,

1 25338U 98030A   18352.60367364  .00000025  00000-0  29141-4 0  9993
2 25338  98.7602   9.0738 0011294  55.3302 304.8940 14.25887880 71307
Epoch (UTC): 18 December 2018 14:29:17
Eccentricity: 0.0011294
inclination: 98.7602°
perigee height: 797 km
apogee height: 813 km
right ascension of ascending node: 9.0738°
argument of perigee: 55.3302°
revolutions per day: 14.25887880
mean anomaly at epoch: 304.8940°
orbit number at epoch: 7130

The dashed part of the orbit path shows where the satellite is in the earth's shadow,  

DLR